TimeEDT,TemperatureF,Dew PointF,Humidity,Sea Level PressureIn,VisibilityMPH,Wind Direction,Wind SpeedMPH,Gust SpeedMPH,PrecipitationIn,Events,Conditions,WindDirDegrees,DateUTC
12:56 AM,63.0,62.1,97,30.03,3.0,North,9.2,-,N/A,,Overcast,350,2013-10-09 04:56:00
1:56 AM,62.1,62.1,100,30.03,3.0,North,9.2,-,N/A,,Overcast,360,2013-10-09 05:56:00
2:56 AM,62.1,61.0,96,30.03,3.0,North,9.2,-,N/A,,Overcast,10,2013-10-09 06:56:00
3:56 AM,61.0,60.1,97,30.04,3.0,North,6.9,-,N/A,,Overcast,350,2013-10-09 07:56:00
4:56 AM,60.1,59.0,96,30.04,4.0,North,9.2,-,N/A,,Overcast,350,2013-10-09 08:56:00
5:56 AM,61.0,60.1,97,30.05,3.0,North,9.2,-,N/A,,Overcast,350,2013-10-09 09:56:00
6:56 AM,60.1,59.0,96,30.06,4.0,North,8.1,-,N/A,,Overcast,360,2013-10-09 10:56:00
7:35 AM,60.8,60.8,100,30.06,2.5,NNW,6.9,-,N/A,,Overcast,340,2013-10-09 11:35:00
7:56 AM,61.0,60.1,97,30.07,2.0,North,5.8,-,0.00,,Light Drizzle,360,2013-10-09 11:56:00
8:11 AM,60.8,60.8,100,30.07,1.5,North,6.9,-,0.00,,Light Drizzle,350,2013-10-09 12:11:00
8:56 AM,60.1,59.0,96,30.09,1.8,North,10.4,-,0.00,,Light Drizzle,350,2013-10-09 12:56:00
9:13 AM,60.8,60.8,100,30.09,4.0,North,8.1,-,0.00,,Light Drizzle,350,2013-10-09 13:13:00
9:56 AM,60.1,59.0,96,30.10,4.0,NNW,11.5,-,0.00,,Light Drizzle,340,2013-10-09 13:56:00
10:56 AM,61.0,59.0,93,30.11,10.0,NNW,9.2,-,0.00,,Overcast,330,2013-10-09 14:56:00
11:56 AM,62.1,59.0,90,30.12,10.0,North,8.1,-,N/A,,Overcast,10,2013-10-09 15:56:00
12:56 PM,63.0,59.0,87,30.11,10.0,NNW,5.8,-,N/A,,Overcast,330,2013-10-09 16:56:00
1:56 PM,64.9,60.1,84,30.09,10.0,NW,9.2,-,N/A,,Overcast,310,2013-10-09 17:56:00
2:09 PM,64.4,60.8,88,30.09,10.0,WNW,6.9,-,N/A,,Overcast,300,2013-10-09 18:09:00
2:56 PM,66.0,60.1,81,30.08,10.0,NW,4.6,-,N/A,,Overcast,310,2013-10-09 18:56:00
3:38 PM,69.8,62.6,78,30.06,10.0,NNW,4.6,-,N/A,,Scattered Clouds,330,2013-10-09 19:38:00
3:56 PM,72.0,62.1,71,30.06,10.0,NW,3.5,-,N/A,,Scattered Clouds,320,2013-10-09 19:56:00
4:56 PM,73.9,63.0,68,30.04,10.0,North,6.9,-,N/A,,Partly Cloudy,360,2013-10-09 20:56:00
5:56 PM,75.0,64.0,69,30.04,10.0,NW,5.8,-,N/A,,Partly Cloudy,320,2013-10-09 21:56:00
6:56 PM,72.0,64.9,78,30.04,10.0,Calm,Calm,-,N/A,,Partly Cloudy,0,2013-10-09 22:56:00
7:56 PM,66.0,64.9,96,30.04,10.0,West,3.5,-,N/A,,Partly Cloudy,280,2013-10-09 23:56:00
8:56 PM,64.9,64.0,97,30.05,10.0,Calm,Calm,-,N/A,,Partly Cloudy,0,2013-10-10 00:56:00
9:56 PM,64.0,63.0,96,30.07,10.0,Calm,Calm,-,N/A,,Partly Cloudy,0,2013-10-10 01:56:00
10:56 PM,63.0,62.1,97,30.07,6.0,Calm,Calm,-,N/A,,Partly Cloudy,0,2013-10-10 02:56:00
11:56 PM,64.0,64.0,100,30.07,10.0,WSW,3.5,-,N/A,,Mostly Cloudy,250,2013-10-10 03:56:00